DELTA 1 DEB, 3416

Orbit data source: Space-Track

DELTA 1 DEB, 3416 is space debris in SSO originally from a launch on Fri, 16 Aug 1968 UTC launched from the Air Force Western Test Range (AFWTR). Debris objects in space refer to the collection of defunct objects orbiting the Earth. Examples of debris include non-operational satellites, rocket bodies, and fragments generated from explosions, collisions, or faulty payload assembly.

Loading next visibility...
DELTA 1 DEB details
Identifier
3416, 1968-069C
Orbit
SSO
Last TLE update1 day ago
Origin
Flag of USGSFC (US)
ManufacturerUnknown
MissionSpacecraft
Bus & MotorUnknown
MassUnknown
Launch date (UTC)
1968-08-16 (56 years ago)
Launch vehicleUnknown
Launch site
Air Force Western Test Range (AFWTR)
Object type
Payload
Rocket body
Debris
Shape & HBRUnknown
Radar Cross SectionSmall (<0.1 m²)

Expand to show TLE details & history

TLE from 1 day ago
0 DELTA 1 DEB
1 03416U 68069C   24355.32017095 -.00000007  00000-0  19851-3 0  9994
2 03416 101.6523 113.0985 0119108 149.2445 280.1609 12.67130903605380
Epoch: 2024-12-20T07:41Z
Definitive object data (Epoch: 2024-12-20T07:41:02.77Z)
Latitude65.37688°
Longitude-118.14781°
Altitude1,389.511 km
Speed7.178 km/s
True Right ascension05h 46m 00s
True Declination65° 15' 25"
Sunlit
Object was in full shadow at TLE epoch
Visualization TLE readout
Latitude78.32932°
Longitude-173.61309°
Altitude1,356.736 km
Speed7.21 km/s
Apparent Right ascension02h 48m 30s
Apparent Declination28° 26' 35"
Sunlit
Object is in daylight
Visualization observer readout
Local Sidereal Time15:02:38
Azimuth3.34° NNE
Elevation-21.562°
Doppler factor1
Orbital elements
Apogee altitude1,483.706 km
Perigee altitude1,298.629 km
Semi-major axis7,769.305 km
Eccentricity0.0119108
Inclination101.6523°
RAAN113.0985°
Arg. of periapsis149.2445°
True anomaly278.81402°
Mean anomaly280.1609°
Eccentric anomaly279.4878°
Mean motion3.16935 °/min
BSTAR0.00019851
Orbital period113.59 mins
Loading maneuver chart data...
Loading historical data...
Loading historical data...
Loading historical data...
Loading historical data...
Loading historical data...
Loading historical data...
Loading historical data...

DELTA 1 DEB Visibility forecast

Observer location: undefined°, undefined

Span
Click to sort rows by Start time (UTC) header in descending order
Start Az.
Max El. time (UTC)
Max El. Az.
Max El.
End time (UTC)
End Az.
12 mins2024-12-21 19:58:15.459Z39.934° NE2024-12-21 20:04:15.459Z98.328° ESE27.606°2024-12-21 20:10:15.459Z155.572° SSE
13 mins2024-12-21 21:50:15.459Z3.577° NNE2024-12-21 21:56:15.459Z289.651° WNW37.872°2024-12-21 22:03:15.459Z222.415° SW
13 mins2024-12-22 06:50:15.459Z122.618° SE2024-12-22 06:56:15.459Z60.914° ENE33.403°2024-12-22 07:03:15.459Z356.801° N
13 mins2024-12-22 08:41:15.459Z193.186° SSW2024-12-22 08:47:15.459Z251.772° W34.986°2024-12-22 08:54:15.459Z326.769° NNW
|